Location: Heiligenberg
(48.5381°N, 7.3897°E)
Time: 21:53:17
(UTC+00:00)

BREEZE-M DEB (TANK) - Pass Details

Date: 26 May 2022
Orbit: 301 x 13680 km, 49.6° (Epoch: 03 July)

Event Time Altitude Azimuth Distance (km) Brightness Sun altitude
Exits shadow 02:46:28 - 224° (SW) 2,606 5.5 -7.4°
Reaches altitude 10° 02:46:50 10° 223° (SW) 2,423 5.4 -7.4°
Maximum altitude 02:50:57 32° 159° (SSE) 791 3.5 -6.9°
Drops below altitude 10° 02:53:08 10° 91° (E) 1,274 5.4 -6.6°
Sets 02:54:43 0° 78° (ENE) 2,011 6.9 -6.4°
